Estación Meteorológica Peña el Pijo (Robertgarden) [ 07/11/20 02:36:31 CEST ]

Fecha Hora Presion(HPa) Temp (°C) Humedad % Rocio (°C) Viento ( m/s) Direccion Lluvia 1Hora(mm) Lluvia 24H(mm) LLuvia Total(mm)
2019-Dec-17 01:09:04 991.400 - - - - S     39.88
2019-Dec-17 02:10:07 991.200 - - - - S     39.88
2019-Dec-17 03:09:39 991.200 - - - - S     39.88
2019-Dec-17 04:09:38 991.400 - - - - S     39.88
2019-Dec-17 05:09:53 990.400 - - - - S     39.88
2019-Dec-17 06:09:51 990.100 - - - - S     39.88
2019-Dec-17 07:09:20 990.900 - - - - S     39.88
2019-Dec-17 08:09:36 991.900 - - - - S     39.88
2019-Dec-17 09:09:05 992.600 - - - - S     39.88
2019-Dec-17 10:09:09 993.500 - - - - S     39.88
2019-Dec-17 11:09:42 994.100 - - - - S     39.88
2019-Dec-17 12:09:07 994.500 - - - - S     39.88
2019-Dec-17 13:09:24 994.500 - - - - S     39.88
2019-Dec-17 14:09:26 994.700 - - - - S     39.88
2019-Dec-17 15:09:23 995.300 - - - - S     39.88
2019-Dec-17 16:09:37 996.700 - - - - S     39.88
2019-Dec-17 17:09:16 997.800 - - - - S     39.88
2019-Dec-17 18:08:52 998.700 - - - - S     39.88
2019-Dec-17 19:09:06 999.800 - - - - S     39.88
2019-Dec-17 20:09:14 1000.800 - - - - S     39.88
2019-Dec-17 21:09:17 1002.100 - - - - S     39.88
2019-Dec-17 22:09:34 1002.700 - - - - S     39.88
2019-Dec-17 23:09:21 1003.300 - - - - S     39.88

Temperatura Máxima:    Temperatura Mínima:
Presión Máxima:1003.300 Hpa    Presión Mínima:990.100 Hpa


Volver